Regional Weather Roundup
Issued by NWS

Home | Current Version | Previous Version | Graphics & Text | Print | Product List | Glossary On
Versions: 1 2 3 4 5 6 7 8 9 10 11 12 13 14 15 16 17 18 19 20 21 22 23 24 25 26 27 28 29 30 31 32 33 34 35 36 37 38 39 40 41 42 43 44 45 46 47 48 49 50
000
ASUS43 KMPX 232001
RWRMN
WEATHER ROUNDUP FOR MINNESOTA
NATIONAL WEATHER SERVICE TWIN CITIES/CHANHASSEN MN
300 PM CDT WED JUL 23 2014


NOTE: "FAIR" INDICATES FEW OR NO CLOUDS BELOW 12,000 FEET WITH NO
SIGNIFICANT WEATHER AND/OR OBSTRUCTIONS TO VISIBILITY. N/A MEANS
CURRENT SKY AND/OR WEATHER CONDITIONS ARE NOT AVAILABLE.

MNZ060>063-068>070-232100-
   Twin Cities Metro

CITY           SKY/WX    TMP DP  RH WIND       PRES   REMARKS
TWIN CITIES    MOSUNNY   83  51  33 W8        30.21F
ST PAUL          N/A     78  52  40 N10       30.21F
CRYSTAL        MOSUNNY   79  51  37 NW12      30.21F
LAKEVILLE      MOSUNNY   79  55  44 NW7       30.22F
EDEN PRAIRIE   MOSUNNY   80  55  42 N8        30.21F
SOUTH ST PAUL  PTSUNNY   79  51  38 NE6       30.21F
LAKE ELMO      FAIR      79  55  44 CALM      30.23F
$$
MNZ001>005-007-008-013>017-022>024-027-028-232100-
   Northwest Minnesota

CITY           SKY/WX    TMP DP  RH WIND       PRES   REMARKS
BEMIDJI        PTSUNNY   75  53  46 N6        30.26S
HALLOCK        SUNNY     72  50  46 N7        30.28S
ROSEAU         MOSUNNY   72  57  60 NE3       30.27F
WARROAD        MOSUNNY   70  55  60 E7        30.28F
THIEF RVR FALL MOSUNNY   72  55  56 NW6       30.27F
CROOKSTON      MOSUNNY   72  57  60 NW7       30.28F
FOSSTON        PTSUNNY   73  55  53 W7        30.28S
DETROIT LAKES  MOSUNNY   73  55  53 N8        30.29S
MOORHEAD       MOSUNNY   75  61  60 CALM      30.27F
PARK RAPIDS    MOSUNNY   76  51  41 N10       30.26S
$$
MNZ006-009>011-018-025>026-232100-
   North Central Minnesota

CITY           SKY/WX    TMP DP  RH WIND       PRES   REMARKS
BAUDETTE       SUNNY     73  51  46 N9        30.28S
FLAG ISLAND    SUNNY     70  48  46 N8        30.27S
INTL FALLS     MOSUNNY   70  50  49 CALM      30.27S
WASKISH        SUNNY     75  57  53 W6        30.26S
BIG FORK       SUNNY     72  52  49 N2        30.26F
LONGVILLE      MOSUNNY   73  55  53 CALM      30.26S
GRAND RAPIDS   PTSUNNY   72  52  49 N7        30.25F
CRANE LAKE     PTSUNNY   68  48  49 N6        30.28S
ORR            MOSUNNY   72  48  43 NW8       30.24F
COOK           PTSUNNY   70  52  52 N6        30.26F
$$
MNZ012-019>021-037-232100-
   Northeast Minnesota

CITY           SKY/WX    TMP DP  RH WIND       PRES   REMARKS
DULUTH         MOSUNNY   74  53  48 N8        30.23F
ELY            MOSUNNY   70  48  46 N5        30.25F
HIBBING        MOSUNNY   75  52  44 N10       30.25F
EVELETH        MOSUNNY   72  50  46 NE7       30.26F
DULUTH HARBOR  SUNNY     64  57  77 NE5       30.23F
TWO HARBORS    SUNNY     70  55  60 SE6       30.22F
SILVER BAY     SUNNY     70  57  64 S9        30.22F
GRAND MARAIS     N/A     59  53  80 CALM      30.24S
G MARAIS ARPRT PTSUNNY   63  54  72 SE3       30.26S
$$
MNZ029>031-032-039>041-046>048-054>057-064-232100-
   West Central Minnesota

CITY           SKY/WX    TMP DP  RH WIND       PRES   REMARKS
FERGUS FALLS   PTSUNNY   75  52  43 CALM      30.26S
WHEATON        MOSUNNY   75  55  50 CALM      30.27S
MORRIS         MOSUNNY   79  57  47 CALM      30.25S
ALEXANDRIA     MOSUNNY   77  54  44 NW8       30.28F
ELBOW LAKE     FAIR      76  57  52 N10       30.26F
WADENA         MOSUNNY   73  57  56 NW8       30.26F
GLENWOOD       SUNNY     77  55  47 NE5       30.27F
APPLETON       SUNNY     82  48  30 NE3       30.25S
BENSON         SUNNY     79  54  41 SE7       30.25F
ORTONVILLE     SUNNY     81  52  36 NE5       30.26S
MADISON        SUNNY     81  55  41 CALM      30.26S
WILLMAR        FAIR      81  48  32 N10       30.26F
$$
MNZ033>034-036-042>043-049>051-058-059-232100-
   Central Minnesota

CITY           SKY/WX    TMP DP  RH WIND       PRES   REMARKS
ST CLOUD       MOSUNNY   80  47  31 N7        30.25S
SAUK CENTRE    FAIR      75  54  47 N7        30.26F
PAYNESVILLE    SUNNY     76  50  38 NW10      30.26S
AITKIN         MOSUNNY   79  54  41 CALM      30.23F
PINE RIVER     MOSUNNY   75  55  50 N8        30.28F
BRAINERD       SUNNY     76  50  40 N8        30.25F
STAPLES        MOSUNNY   75  48  38 N8        30.26S
LONG PRAIRIE   FAIR      75  54  46 NW8       30.27F
LITTLE FALLS   MOSUNNY   75  45  33 NE6       30.26S
LITCHFIELD     SUNNY     81  48  32 NW9G16    30.25F
BUFFALO        MOSUNNY   79  50  36 N8        30.24F
MAPLE LAKE     MOSUNNY   78  56  45 NW5       30.25S
$$
MNZ037-044-045-052-053-232100-
   East Central Minnesota

CITY           SKY/WX    TMP DP  RH WIND       PRES   REMARKS
PRINCETON      PTSUNNY   75  55  50 NW9       30.24F
MORA           SUNNY     75  54  46 CALM      30.25S
CAMBRIDGE      MOSUNNY   81  57  44 N6        30.22S
RUSH CITY      MOSUNNY   77  55  46 NW5       30.23F
MOOSE LAKE     PTSUNNY   75  54  46 NW3       30.21F
HINCKLEY       FAIR      75  59  57 NE7       30.23F
CLOQUET        MOSUNNY   73  48  40 N6G16     30.24F
MCGREGOR       MOSUNNY   75  54  46 N7        30.24F
$$
MNZ071>073-080-081-089-090-097-098-232100-
   Southwest Minnesota

CITY           SKY/WX    TMP DP  RH WIND       PRES   REMARKS
MONTEVIDEO     SUNNY     82  54  36 NE7       30.26S
GRANITE FALLS  MOSUNNY   78  52  40 CALM      30.26F
CANBY          SUNNY     79  52  39 CALM      30.28S
MARSHALL       SUNNY     79  54  41 E5        30.26S
REDWOOD FALLS  SUNNY     82  53  36 NE7       30.24F
OLIVIA         MOSUNNY   79  52  38 N3        30.24
PIPESTONE      SUNNY     79  52  38 E5        30.28F
WINDOM         SUNNY     79  54  41 N3        30.26F
WORTHINGTON    SUNNY     77  55  47 NE6       30.28F
JACKSON        SUNNY     77  54  44 CALM      30.26F
TRACY          MOSUNNY   78  52  40 CALM      30.27S
SLAYTON        SUNNY     77  50  39 CALM      30.28F
$$
MNZ065>067-074>077-082>085-091>093-232100-
   South Central Minnesota

CITY           SKY/WX    TMP DP  RH WIND       PRES   REMARKS
MANKATO        SUNNY     79  52  38 N5        30.23F
NEW ULM        MOSUNNY   79  55  44 N6        30.23F
ST JAMES       MOSUNNY   81  52  36 N3        30.25F
FAIRMONT       PTSUNNY   79  54  41 N3        30.24F
GLENCOE        SUNNY     80  48  32 NW7       30.22F
FARIBAULT      MOSUNNY   82  46  28 N3        30.23F HAZE
OWATONNA       MOSUNNY   79  52  38 NW3       30.23F
WASECA         MOSUNNY   77  50  38 N7        30.25S
ALBERT LEA     SUNNY     79  54  41 N7        30.23S
$$
MNZ078>079-086>088-094>096-232100-
   Southeast Minnesota

CITY           SKY/WX    TMP DP  RH WIND       PRES   REMARKS
ROCHESTER      MOSUNNY   78  56  46 NE7       30.24F
RED WING       MOSUNNY   82  50  32 N8        30.20F
STANTON        MOSUNNY   78  50  37 CALM      30.21F
DODGE CENTER   MOSUNNY   75  54  46 NE6       30.23F
WINONA         MOSUNNY   81  54  39 N6        30.20F
AUSTIN         MOSUNNY   81  52  36 NE5       30.22F
PRESTON        MOSUNNY   75  61  61 N6        30.23F
$$
ABBREVIATIONS USED IN REMARKS
   TC - TEMPERATURES IN CELSIUS
  WCI - WIND CHILL INDEX
   HX - HEAT INDEX
  VSB - VISIBILITY
$$


USA.gov is the U.S. government's official web portal to all federal, state and local government web resources and services.